SCP
0 0 0 0 0 0 0 0 0 0 0 0 0 0 0 0 0 0 0 0 0 0 0 0 0 0 0 0 0 0 0 0 0 0 0 0 0 0 0 0 0 0 0
0 0 0 0 0 0 0 0 0 0 0 0 0 0 0 0 0 0 0 0 0 0 0 0 0 0 0 0 0 0 0 0 0 0 0 0 0 0 0 0 0 0 0
0 0 0 0 0 0 0 0 0 0 0 0 0 0 0 0 0 0 0 0 0 0 0 0 0 0 0 0 0 0 0 0 0 0 0 0 0 0 0 0 0 0 0
0 0 0 0 0 0 0 0 0 0 0 0 0 0 0 0 0 0 0 0 0 0 0 0 0 0 0 0 0 0 0 0 0 0 0 0 0 0 0 0 0 0 0
0 0 0 0 0 0 0 0 0 0 0 0 0 0 0 0 0 0 0 0 0 0 0 0 0 0 0 0 0 0 0 0 0 0 0 0 0 0 0 0 0 0 0
0 0 0 0 0 0 0 0 0 0 0 0 0 0 0 0 0 0 0 0 0 0 0 0 0 0 0 0 0 0 0 0 0 0 0 0 0 0 0 0 0 0 0
0 0 0 0 0 0 0 0 0 0 0 0 0 0 0 0 0 0 0 0 0 0 0 0 0 0 0 0 0 0 0 0 0 0 0 0 0 0 0 0 0 0 0
0 0 0 0 0 0 0 0 0 0 0 0 0 0 0 0 0 0 0 0 0 0 0 0 0 0 0 0 0 0 0 0 0 0 0 0 0 0 0 0 0 0 0
0 0 0 0 0 0 0 0 0 0 0 0 0 0 0 0 0 0 0 0 0 0 0 0 0 0 0 0 0 0 0 0 0 0 0 0 0 0 0 0 0 0 0
0 0 0 0 0 0 0 0 0 0 0 0 0 0 0 0 0 0 0 0 0 0 0 0 0 0 0 0 0 0 0 0 0 0 0 0 0 0 0 0 0 0 0
0 0 0 0 0 0 0 0 0 0 0 0 0 0 0 0 0 0 0 0 0 0 0 0 0 0 0 0 0 0 0 0 0 0 0 0 0 0 0 0 0 0 0
0 0 0 0 0 0 0 0 0 0 0 0 0 0 0 0 0 0 0 0 0 0 0 0 0 0 0 0 0 0 0 0 0 0 0 0 0 0 0 0 0 0 0
0 0 0 0 0 0 0 0 0 0 0 0 0 0 0 0 0 0 0 0 0 0 0 0 0 0 0 0 0 0 0 0 0 0 0 0 0 0 0 0 0 0 0
0 0 0 0 0 0 0 0 0 0 0 0 0 0 0 0 0 0 0 0 0 0 0 0 0 0 0 0 0 0 0 0 0 0 0 0 0 0 0 0 0 0 0
0 0 0 0 0 0 0 0 0 0 0 0 0 0 0 0 0 0 0 0 0 0 0 0 0 0 0 0 0 0 0 0 0 0 0 0 0 0 0 0 0 0 0
0 0 0 0 0 0 0 0 0 0 0 0 0 0 0 0 0 0 0 0 0 0 0 0 0 0 0 0 0 0 0 0 0 0 0 0 0 0 0 0 0 0 0
0 0 0 0 0 0 0 0 0 0 0 0 0 0 0 0 0 0 0 0 0 0 0 0 0 0 0 0 0 0 0 0 0 0 0 0 0 0 0 0 0 0 0
0 0 0 0 0 0 0 0 0 0 0 0 0 0 0 0 0 0 0 0 0 0 0 0 0 0 0 0 0 0 0 0 0 0 0 0 0 0 0 0 0 0 0
0 0 0 0 0 0 0 0 0 0 0 0 0 0 0 0 0 0 0 0 0 0 0 0 0 0 0 0 0 0 0 0 0 0 0 0 0 0 0 0 0 0 0
0 0 0 0 0 0 0 0 0 0 0 0 0 0 0 0 0 0 0 0 0 0 0 0 0 0 0 0 0 0 0 0 0 0 0 0 0 0 0 0 0 0 0
0 0 0 0 0 0 0 0 0 0 0 0 0 0 0 0 0 0 0 0 0 0 0 0 0 0 0 0 0 0 0 0 0 0 0 0 0 0 0 0 0 0 0
0 0 0 0 0 0 0 0 0 0 0 0 0 0 0 0 0 0 0 0 0 0 0 0 0 0 0 0 0 0 0 0 0 0 0 0 0 0 0 0 0 0 0
0 0 0 0 0 0 0 0 0 0 0 0 0 0 0 0 0 0 0 0 0 0 0 0 0 0 0 0 0 0 0 0 0 0 0 0 0 0 0 0 0 0 0
0 0 0 0 0 0 0 0 0 0 0 0 0 0 0 0 0 0 0 0 0 0 0 0 0 0 0 0 0 0 0 0 0 0 0 0 0 0 0 0 0 0 0
0 0 0 0 0 0 0 0 0 0 0 0 0 0 0 0 0 0 0 0 0 0 0 0 0 0 0 0 0 0 0 0 0 0 0 0 0 0 0 0 0 0 0
0 0 0 0 0 0 0 0 0 0 0 0 0 0 0 0 0 0 0 0 0 0 0 0 0 0 0 0 0 0 0 0 0 0 0 0 0 0 0 0 0 0 0
Wind_Speed
3 3 3 3 3 3 3 4 4 5 5 5 4 4 4 4 4 4 3 7 9 10 11 12 12 12 12 13 13 12 12 12 12 11 11 12 12 12 12 12 12 11 11
3 3 3 4 4 4 4 4 5 5 4 4 5 5 5 5 4 4 3 4 8 9 10 12 12 12 12 12 12 12 11 11 12 12 11 12 12 13 13 13 13 13 13
4 4 3 4 4 4 5 4 5 5 5 5 5 6 5 5 4 5 3 2 3 6 8 10 11 12 12 12 13 12 11 11 11 12 11 11 11 12 13 13 13 14 14
5 4 3 4 5 5 4 4 4 5 5 5 5 5 5 4 5 4 3 2 1 1 4 7 8 10 11 11 12 12 12 10 11 11 12 12 12 11 12 13 13 13 14
5 4 3 4 5 4 4 5 5 5 5 6 6 6 5 4 4 3 2 2 1 0 1 3 5 6 7 9 10 11 11 10 10 11 12 13 13 13 13 13 12 13 13
5 4 3 4 4 4 4 4 5 5 4 5 7 6 5 4 3 2 2 1 2 1 1 1 1 2 5 7 9 11 11 11 10 9 10 11 12 14 15 15 14 14 13
5 4 4 4 4 3 4 5 4 5 5 5 4 5 4 4 2 2 2 2 2 2 2 2 1 1 2 4 6 9 11 12 12 11 10 10 11 12 14 15 15 15 14
4 4 4 3 4 3 4 5 5 4 4 5 3 4 4 4 4 3 2 2 3 3 3 3 2 2 1 1 3 6 9 11 11 12 12 11 10 12 13 14 15 15 16
3 4 4 4 4 3 3 4 4 5 4 4 3 2 3 3 5 4 3 3 4 4 4 4 4 3 3 2 2 5 8 9 10 10 11 12 12 13 13 13 12 14 14
2 3 3 4 3 3 3 4 4 3 3 4 3 3 2 2 3 4 4 4 5 5 5 5 5 4 3 2 3 6 7 8 10 11 11 11 12 13 14 14 13 13 12
1 2 3 3 3 3 3 4 4 4 3 3 3 3 3 3 2 3 5 5 5 4 4 4 3 3 4 3 3 7 8 9 11 12 13 12 12 12 13 14 15 14 13
1 1 2 2 3 2 3 3 3 3 3 3 3 2 2 2 3 2 4 5 5 4 5 3 2 2 3 4 6 11 11 10 11 12 13 13 12 13 13 13 13 14 14
1 1 2 2 2 2 3 3 3 3 3 3 3 2 2 2 2 3 4 4 5 5 4 2 2 3 4 4 5 12 11 12 12 12 12 12 12 12 12 12 11 11 11
1 1 1 2 2 2 3 2 2 3 2 3 3 3 2 2 2 2 2 3 5 4 3 3 2 3 4 4 7 11 7 14 14 13 12 12 12 11 11 11 11 10 10
2 1 1 2 2 2 2 2 2 2 2 2 3 3 2 2 2 2 2 2 3 5 4 3 3 4 5 4 9 7 6 12 14 14 13 12 11 11 11 11 11 10 10
2 2 2 2 2 2 2 2 2 2 2 2 2 3 3 2 2 2 2 2 2 3 5 3 4 6 6 6 10 7 7 14 13 14 14 12 11 11 11 11 11 11 10
3 2 2 2 2 2 2 2 2 2 2 2 2 2 3 3 2 2 2 2 3 3 5 5 4 5 7 6 7 6 6 6 6 13 14 14 13 12 11 11 10 10 11
3 3 3 3 3 3 2 2 3 3 2 3 3 2 3 3 3 2 2 3 3 3 4 7 6 5 6 6 6 7 6 7 6 12 14 15 14 13 13 12 11 11 11
4 3 3 3 3 3 2 2 3 3 2 2 2 2 3 2 3 3 3 3 3 3 3 5 6 5 4 5 6 7 7 5 7 9 13 13 14 15 15 14 12 11 10
4 4 4 3 3 3 3 3 3 3 3 3 2 2 2 2 2 3 3 3 3 3 4 4 5 5 5 5 5 6 7 5 6 7 9 10 13 15 15 15 14 12 11
5 4 4 3 3 3 3 3 3 3 3 3 3 2 2 3 4 4 4 3 3 3 4 4 5 5 5 5 5 5 7 7 6 4 5 6 7 6 7 11 12 13 12
4 4 5 4 4 4 5 6 4 3 3 3 3 2 3 3 5 7 8 7 6 5 4 4 4 5 6 5 5 6 6 7 6 4 6 8 5 6 6 5 11 15 14
5 5 5 5 5 5 7 7 7 4 3 4 3 3 3 3 4 3 5 8 7 9 9 5 5 6 6 6 6 6 7 8 8 7 7 8 5 6 6 8 15 15 14
5 5 5 5 4 5 8 8 8 4 4 4 4 3 3 3 3 3 3 3 4 5 7 4 4 5 6 5 5 6 7 8 7 6 4 7 6 6 7 6 12 13 14
5 5 4 5 5 5 8 8 7 3 3 4 4 3 3 3 6 7 4 4 4 5 7 9 10 9 11 12 9 5 5 6 7 5 3 4 5 7 6 5 6 12 14
5 4 4 5 5 5 7 8 7 3 3 4 3 3 6 5 6 7 3 3 5 5 5 6 6 8 7 7 10 4 4 5 6 6 2 3 4 6 7 4 3 5 7
Wind_Direction
356 351 343 347 345 340 337 328 322 321 318 315 305 300 291 274 264 249 235 219 218 226 236 242 244 245 246 246 246 244 241 240 240 240 238 236 236 236 235 235 233 233 231
356 348 349 352 352 343 338 332 328 322 314 314 309 304 293 285 275 271 252 222 220 225 235 243 246 248 248 249 250 248 245 245 244 242 240 239 237 236 235 234 234 235 234
358 353 354 354 345 338 338 336 334 329 322 320 312 306 299 292 292 283 278 253 221 224 231 242 247 250 253 254 254 253 251 248 246 245 242 241 240 237 237 236 235 235 235
4 359 0 356 346 342 345 340 341 334 329 325 318 308 301 292 288 287 291 288 271 248 237 244 250 256 257 259 260 260 260 254 250 249 246 243 241 239 239 239 238 238 237
5 3 2 357 347 345 346 344 345 338 331 329 316 302 298 295 287 291 299 314 321 333 275 256 251 261 266 265 267 267 267 266 262 257 251 245 242 240 240 242 241 240 240
5 4 360 354 352 349 350 351 342 337 329 323 312 307 299 295 299 304 301 327 350 353 346 342 263 267 273 276 274 273 272 272 270 269 261 251 245 243 241 242 242 242 242
4 5 358 351 353 351 347 349 341 337 338 332 322 315 300 291 324 340 354 359 1 353 1 3 349 330 289 279 294 293 288 280 273 268 269 261 253 251 247 244 243 241 242
5 5 1 353 350 346 353 353 348 340 337 352 338 323 328 328 352 340 359 17 6 355 351 350 350 347 334 345 343 328 316 303 287 278 272 269 266 259 254 251 247 242 242
10 4 354 353 350 354 351 346 348 349 336 334 350 350 342 327 327 321 359 15 5 359 354 349 343 343 345 1 349 338 332 317 308 300 289 277 271 267 262 258 257 253 247
11 4 352 350 346 348 351 346 352 337 337 333 333 342 317 310 315 317 323 351 354 350 349 345 348 347 349 345 353 352 339 323 313 309 304 296 284 275 269 264 260 259 257
7 5 351 347 345 347 348 345 343 345 342 333 327 323 318 319 318 295 304 325 331 329 333 328 336 348 350 346 345 348 339 322 310 310 310 306 301 299 287 273 265 261 260
335 359 350 341 334 336 335 332 333 336 335 329 323 327 323 317 323 310 297 311 311 311 309 307 330 350 2 356 350 350 344 335 323 315 309 309 314 312 303 290 278 269 263
307 321 335 324 323 326 328 329 329 326 329 324 319 317 314 312 312 305 298 301 304 300 298 309 345 10 3 350 345 348 343 336 328 321 319 319 322 323 317 312 300 291 279
263 287 303 308 311 321 324 321 317 316 323 321 323 317 309 311 315 311 305 308 306 299 300 310 343 18 2 351 343 345 336 336 333 326 324 324 322 321 319 317 311 303 297
248 266 278 289 300 306 306 307 304 310 314 313 311 314 311 308 311 307 307 302 294 298 297 315 347 353 349 347 342 338 335 329 331 332 327 326 324 322 319 316 314 305 299
237 246 256 267 278 287 297 305 298 297 306 309 308 321 319 313 310 309 305 301 289 276 283 303 317 325 333 337 337 337 329 330 328 330 330 326 320 318 313 311 310 306 300
227 235 245 254 261 270 282 289 287 292 296 300 302 306 308 308 310 309 307 303 296 288 284 293 305 319 326 332 328 326 321 319 319 327 330 330 322 315 311 307 307 304 300
221 222 233 243 253 262 266 271 279 285 281 286 295 301 300 311 313 308 309 303 299 297 292 298 307 317 321 323 324 324 327 326 320 321 326 326 327 328 319 308 304 297 294
221 219 219 227 239 246 251 262 268 275 275 278 289 296 302 316 316 317 312 306 305 310 304 298 304 311 312 323 326 322 322 319 321 325 326 324 326 326 324 315 305 299 294
216 219 222 227 232 239 241 254 267 272 272 273 268 268 279 289 295 304 303 301 306 306 305 302 301 307 309 317 321 323 324 324 321 320 321 321 323 323 321 319 315 307 298
218 217 223 230 235 238 241 247 258 270 273 277 279 275 275 278 288 293 296 294 302 298 299 298 300 307 310 321 323 322 320 318 309 309 319 316 316 314 317 318 320 318 311
220 217 222 224 232 238 251 255 256 262 268 268 268 274 281 282 294 300 303 307 305 297 294 291 296 301 305 310 314 320 320 319 314 320 322 309 310 309 310 308 318 321 320
218 221 225 223 229 237 248 255 259 258 257 258 257 260 273 284 299 292 299 306 307 304 297 288 288 292 300 308 313 312 311 308 298 302 309 299 305 303 305 311 317 318 320
219 222 226 225 228 239 248 255 257 255 258 257 250 241 248 265 277 291 291 297 294 298 298 295 277 283 293 296 292 297 298 300 293 293 300 292 302 301 306 304 310 318 324
224 223 222 222 226 239 245 250 248 247 254 258 250 241 245 248 272 291 293 290 294 293 303 305 302 302 304 309 311 312 311 311 306 304 308 293 302 307 298 291 307 322 323
223 220 225 223 225 233 242 246 241 228 247 255 254 251 260 262 270 288 285 281 288 291 300 309 308 309 308 309 314 310 303 302 304 301 317 320 308 323 310 289 298 314 311